EW1587 Weather Reports


time (UTC)temp
C
wind
direction
speed
KPH
gust
KPH
rain 1hr
cm
rain 24hr
cm
rain mn
cm
humidity
%
barometer
mb
20260506081015 0 291 0.0 4.8 0.00 0.00 0.00 77 1015.8
20260506080511 0 288 3.2 4.8 0.00 0.00 0.00 77 1015.9
20260506073505 0 299 1.6 4.8 0.00 0.00 0.00 75 1015.7
20260506073005 0 293 1.6 3.2 0.00 0.00 0.00 76 1015.6
20260506072504 0 280 1.6 3.2 0.00 0.00 0.00 74 1015.6
20260506072002 0 299 0.0 1.6 0.00 0.00 0.00 71 1015.6
20260506071502 0 336 0.0 1.6 0.00 0.00 0.00 70 1015.6
20260506071000 0 343 0.0 1.6 0.00 0.00 0.00 69 1015.5
20260506070602 0 349 0.0 1.6 0.00 0.00 0.00 68 1015.6
20260506070104 0 349 0.0 3.2 0.00 0.00 0.00 68 1015.6
20260506062055 0 23 0.0 3.2 0.00 0.00 0.00 65 1015.6
20260506061554 0 22 0.0 3.2 0.00 0.00 0.00 65 1015.5
20260506061054 0 25 0.0 3.2 0.00 0.00 0.00 66 1015.6
20260506060553 0 22 0.0 1.6 0.00 0.00 0.00 66 1015.6
20260506051044 1 51 1.6 4.8 0.00 0.00 0.00 64 1015.3
20260506050544 1 49 1.6 4.8 0.00 0.00 0.00 63 1015.3
20260506045042 1 51 3.2 9.7 0.00 0.00 0.00 62 1015.2
20260506044542 1 71 3.2 9.7 0.00 0.00 0.00 62 1015.2
20260506044141 2 49 1.6 12.9 0.00 0.00 0.00 62 1015.2
20260506043541 1 40 3.2 12.9 0.00 0.00 0.00 62 1015.2
20260506043041 2 41 0.0 3.2 0.00 0.00 0.00 62 1015.2
20260506042541 2 12 0.0 3.2 0.00 0.00 0.00 61 1015.1
20260506042040 2 30 0.0 6.4 0.00 0.00 0.00 61 1015.1
20260506041540 2 12 1.6 6.4 0.00 0.00 0.00 61 1015.1
20260506041039 2 13 1.6 6.4 0.00 0.00 0.00 61 1015.1
20260506040539 2 18 1.6 11.3 0.00 0.00 0.00 61 1015.1
20260506040038 2 18 3.2 11.3 0.00 0.00 0.00 61 1015.0
20260506035537 2 22 0.0 4.8 0.00 0.00 0.00 61 1015.0
20260506035039 2 20 0.0 4.8 0.00 0.00 0.00 60 1014.9
20260506034545 2 16 0.0 8.0 0.00 0.00 0.00 60 1014.9
20260506034035 2 11 0.0 8.0 0.00 0.00 0.00 60 1014.9
20260506033534 2 11 1.6 6.4 0.00 0.00 0.00 60 1014.8
20260506033034 2 360 0.0 6.4 0.00 0.00 0.00 60 1014.7
20260506032537 2 39 1.6 6.4 0.00 0.00 0.00 60 1014.7
20260506032034 2 34 0.0 3.2 0.00 0.00 0.00 60 1014.6
20260506031534 2 15 0.0 3.2 0.00 0.00 0.00 59 1014.6
20260506031034 2 38 0.0 4.8 0.00 0.00 0.00 59 1014.6
20260506030533 2 8 0.0 4.8 0.00 0.00 0.00 58 1014.6
20260506030039 3 44 0.0 4.8 0.00 0.00 0.00 58 1014.6
20260506025532 3 23 0.0 8.0 0.00 0.00 0.00 57 1014.4
20260506025031 3 27 1.6 9.7 0.00 0.00 0.00 56 1014.4
20260506024553 3 25 1.6 11.3 0.00 0.00 0.00 56 1014.5
20260506024031 3 359 4.8 12.9 0.00 0.00 0.00 56 1014.5
20260506023531 3 356 3.2 12.9 0.00 0.00 0.00 56 1014.4
20260506023029 3 335 4.8 14.5 0.00 0.00 0.00 56 1014.3
20260506022528 3 13 1.6 14.5 0.00 0.00 0.00 56 1014.2
20260506022027 3 340 4.8 9.7 0.00 0.00 0.00 56 1014.2
20260506021528 3 358 1.6 12.9 0.00 0.00 0.00 56 1014.1
20260506021028 3 359 4.8 12.9 0.00 0.00 0.00 55 1014.0
20260506020526 4 345 3.2 12.9 0.00 0.00 0.00 55 1013.9
20260506020024 4 18 4.8 17.7 0.00 0.00 0.00 55 1013.9
20260506015524 4 19 6.4 17.7 0.00 0.00 0.00 55 1013.8
20260506015024 4 12 6.4 14.5 0.00 0.00 0.00 54 1013.7
20260506014522 4 352 4.8 14.5 0.00 0.00 0.00 54 1013.7
20260506014023 5 12 4.8 12.9 0.00 0.00 0.00 54 1013.6
20260506013522 5 332 4.8 14.5 0.00 0.00 0.00 53 1013.6
20260506013034 5 8 4.8 14.5 0.00 0.00 0.00 53 1013.5
20260506012522 5 345 6.4 16.1 0.00 0.00 0.00 53 1013.5
20260506012020 5 338 4.8 16.1 0.00 0.00 0.00 52 1013.3
20260506011520 5 345 4.8 20.9 0.00 0.00 0.00 52 1013.3
20260506011020 5 335 8.0 17.7 0.00 0.00 0.00 52 1013.3
20260506010519 5 51 6.4 20.9 0.00 0.00 0.00 51 1013.1
20260506010024 6 333 8.0 20.9 0.00 0.00 0.00 50 1013.0
20260506005517 6 12 6.4 22.5 0.00 0.00 0.00 49 1013.0
20260506005017 6 341 8.0 22.5 0.00 0.00 0.00 48 1013.0
20260506004517 6 330 6.4 19.3 0.00 0.00 0.00 48 1013.0
20260506004017 6 34 8.0 24.1 0.00 0.00 0.00 47 1012.9
20260506003517 6 9 11.3 25.7 0.00 0.00 0.00 46 1012.9
20260506003018 6 360 9.7 25.7 0.00 0.00 0.00 46 1012.8
20260506002515 6 349 4.8 19.3 0.00 0.00 0.00 46 1012.8
20260506002015 7 325 6.4 20.9 0.00 0.00 0.00 46 1012.5
20260506001514 7 342 4.8 20.9 0.00 0.00 0.00 46 1012.5
20260506001014 7 26 4.8 16.1 0.00 0.00 0.00 45 1012.5
20260506000514 7 46 8.0 16.1 0.00 0.00 0.00 45 1012.4
20260506000013 7 27 3.2 17.7 0.00 0.00 0.00 45 1012.4
20260505235512 7 49 4.8 20.9 0.00 0.00 0.00 45 1012.4
20260505235012 7 13 6.4 20.9 0.00 0.00 0.00 44 1012.4
20260505234512 7 323 6.4 27.4 0.00 0.00 0.00 44 1012.3
20260505234013 7 325 9.7 25.7 0.00 0.00 0.00 44 1012.3
20260505233510 7 311 4.8 16.1 0.00 0.00 0.00 45 1012.2
20260505233015 7 12 8.0 25.7 0.00 0.00 0.00 44 1012.2
20260505232508 7 46 12.9 25.7 0.00 0.00 0.00 44 1012.2
20260505232008 7 19 6.4 20.9 0.00 0.00 0.00 44 1012.0
20260505231508 8 342 9.7 19.3 0.00 0.00 0.00 43 1012.0
20260505231013 8 351 12.9 24.1 0.00 0.00 0.00 43 1011.9
20260505230508 8 290 8.0 24.1 0.00 0.00 0.00 44 1011.9
20260505230022 8 14 9.7 24.1 0.00 0.00 0.00 43 1012.0
20260505225507 8 323 11.3 24.1 0.00 0.00 0.00 43 1011.9
20260505225007 8 325 8.0 22.5 0.00 0.00 0.00 43 1011.8
20260505224506 8 340 11.3 27.4 0.00 0.00 0.00 42 1011.9
20260505224011 8 333 9.7 20.9 0.00 0.00 0.00 42 1011.8
20260505223506 8 320 4.8 16.1 0.00 0.00 0.00 43 1011.8
20260505223006 8 309 4.8 17.7 0.00 0.00 0.00 43 1011.8
20260505222506 8 326 6.4 27.4 0.00 0.00 0.00 43 1011.8
20260505222006 8 345 11.3 27.4 0.00 0.00 0.00 42 1011.8
20260505221506 8 339 9.7 24.1 0.00 0.00 0.00 41 1011.7
20260505221005 8 349 6.4 24.1 0.00 0.00 0.00 41 1011.6
20260505220505 8 93 11.3 24.1 0.00 0.00 0.00 41 1011.6
20260505220006 8 314 9.7 25.7 0.00 0.00 0.00 41 1011.6
20260505215505 8 278 14.5 25.7 0.00 0.00 0.00 40 1011.5
20260505215005 8 274 9.7 29.0 0.00 0.00 0.00 41 1011.7
20260505214506 8 328 9.7 29.0 0.00 0.00 0.00 40 1011.7
20260505214006 8 274 11.3 22.5 0.00 0.00 0.00 43 1011.8
20260505213503 8 294 6.4 19.3 0.00 0.00 0.00 43 1011.8
20260505213002 8 300 8.0 19.3 0.00 0.00 0.00 45 1011.8
20260505212504 7 340 9.7 30.6 0.00 0.00 0.00 44 1011.9
20260505212002 8 278 20.9 30.6 0.00 0.00 0.00 42 1011.8
20260505211502 8 303 12.9 30.6 0.00 0.00 0.00 43 1011.9
20260505211002 8 293 16.1 30.6 0.00 0.00 0.00 44 1011.8
20260505210601 8 41 8.0 20.9 0.00 0.00 0.00 42 1011.9
20260505210100 8 328 6.4 14.5 0.00 0.00 0.00 42 1011.9
20260505205559 8 248 3.2 14.5 0.00 0.00 0.00 44 1011.9
20260505205100 7 353 8.0 17.7 0.00 0.00 0.00 43 1011.9
20260505204607 7 20 6.4 25.7 0.00 0.00 0.00 43 1012.0
20260505204058 7 315 11.3 25.7 0.00 0.00 0.00 44 1012.0
20260505203559 7 298 8.0 29.0 0.00 0.00 0.00 43 1012.0
20260505203116 7 341 12.9 27.4 0.00 0.00 0.00 43 1012.1
20260505202559 7 326 6.4 20.9 0.00 0.00 0.00 43 1012.0
20260505202057 7 238 6.4 24.1 0.00 0.00 0.00 44 1012.0
20260505201558 7 316 12.9 24.1 0.00 0.00 0.00 44 1012.0
20260505201057 7 298 11.3 22.5 0.00 0.00 0.00 44 1012.1
20260505200600 7 307 8.0 24.1 0.00 0.00 0.00 44 1012.1
20260505200101 8 311 9.7 24.1 0.00 0.00 0.00 43 1012.1
20260505195558 8 44 4.8 22.5 0.00 0.00 0.00 44 1012.0
20260505195056 7 283 8.0 24.1 0.00 0.00 0.00 43 1012.0
20260505194610 8 330 9.7 27.4 0.00 0.00 0.00 44 1012.1
20260505194059 7 297 9.7 27.4 0.00 0.00 0.00 43 1011.9
20260505194005 8 338 11.3 27.4 0.00 0.00 0.00 43 1012.0
20260505193555 7 296 6.4 25.7 0.00 0.00 0.00 43 1012.0
20260505193512 7 319 6.4 25.7 0.00 0.00 0.00 42 1012.0
20260505193107 8 313 11.3 25.7 0.00 0.00 0.00 43 1012.0
20260505192554 7 280 9.7 25.7 0.00 0.00 0.00 43 1012.0
20260505192054 7 349 9.7 25.7 0.00 0.00 0.00 43 1012.0
20260505191554 7 302 9.7 27.4 0.00 0.00 0.00 43 1012.1
20260505191053 7 349 12.9 27.4 0.00 0.00 0.00 43 1012.1
20260505190557 7 85 4.8 22.5 0.00 0.00 0.00 44 1011.9
20260505190053 7 356 11.3 22.5 0.00 0.00 0.00 43 1012.1
20260505185556 7 324 8.0 19.3 0.00 0.00 0.00 43 1012.0
20260505185052 7 323 8.0 25.7 0.00 0.00 0.00 43 1012.0
20260505184553 7 281 6.4 27.4 0.00 0.00 0.00 44 1012.1
20260505184054 7 297 12.9 27.4 0.00 0.00 0.00 44 1012.0
20260505183555 7 270 14.5 25.7 0.00 0.00 0.00 43 1012.0
20260505183058 7 328 9.7 25.7 0.00 0.00 0.00 46 1012.0
20260505182550 7 291 9.7 25.7 0.00 0.00 0.00 46 1012.0
20260505182050 7 303 8.0 24.1 0.00 0.00 0.00 45 1012.0
20260505181550 7 337 11.3 22.5 0.00 0.00 0.00 45 1012.0
20260505181049 7 10 8.0 22.5 0.00 0.00 0.00 45 1012.0
20260505180549 7 250 9.7 22.5 0.00 0.00 0.00 44 1011.9
20260505180051 7 300 9.7 27.4 0.00 0.00 0.00 44 1011.9
20260505175548 7 328 9.7 27.4 0.00 0.00 0.00 46 1011.9
20260505175048 7 280 12.9 25.7 0.00 0.00 0.00 46 1011.8
20260505174648 7 269 12.9 25.7 0.00 0.00 0.00 46 1011.8
20260505174048 7 262 12.9 22.5 0.00 0.00 0.00 44 1011.8
20260505173547 7 98 9.7 29.0 0.00 0.00 0.00 44 1011.9
20260505173050 7 6 6.4 33.8 0.00 0.00 0.00 46 1011.9
20260505172550 7 350 11.3 33.8 0.00 0.00 0.00 44 1011.8
20260505172047 7 250 14.5 30.6 0.00 0.00 0.00 43 1011.7
20260505171547 7 290 14.5 24.1 0.00 0.00 0.00 44 1012.0
20260505171049 7 41 6.4 22.5 0.00 0.00 0.00 46 1012.0
20260505170548 6 357 8.0 24.1 0.00 0.00 0.00 46 1012.0
20260505170046 7 290 9.7 24.1 0.00 0.00 0.00 44 1012.0
20260505165545 7 274 6.4 30.6 0.00 0.00 0.00 43 1012.0
20260505165045 7 292 9.7 30.6 0.00 0.00 0.00 42 1012.0
20260505164557 7 326 11.3 20.9 0.00 0.00 0.00 43 1011.8
20260505164043 7 339 6.4 19.3 0.00 0.00 0.00 45 1011.9
20260505163542 7 317 4.8 19.3 0.00 0.00 0.00 47 1011.9
20260505163048 6 20 8.0 22.5 0.00 0.00 0.00 47 1011.9
20260505162545 7 12 11.3 22.5 0.00 0.00 0.00 45 1011.9
20260505162040 6 47 9.7 20.9 0.00 0.00 0.00 47 1011.9
20260505161543 6 266 8.0 22.5 0.00 0.00 0.00 46 1011.8
20260505161039 6 253 11.3 22.5 0.00 0.00 0.00 46 1011.9
20260505160539 6 56 11.3 19.3 0.00 0.00 0.00 46 1012.0
20260505153048 6 296 8.0 22.5 0.00 0.00 0.00 47 1011.8
20260505152535 5 332 8.0 22.5 0.00 0.00 0.00 48 1011.8
20260505152033 5 29 8.0 20.9 0.00 0.00 0.00 49 1011.8
20260505151541 6 336 9.7 20.9 0.00 0.00 0.00 48 1011.8
20260505151032 6 73 4.8 14.5 0.00 0.00 0.00 49 1011.7
20260505150532 6 309 8.0 14.5 0.00 0.00 0.00 48 1011.7
20260505140524 5 16 3.2 12.9 0.00 0.00 0.00 52 1011.3
20260505125016 2 60 8.0 16.1 0.00 0.00 0.00 54 1010.5
20260505124515 2 347 8.0 14.5 0.00 0.00 0.00 53 1010.5
20260505124017 2 51 8.0 19.3 0.00 0.00 0.00 54 1010.5
20260505123516 2 49 8.0 19.3 0.00 0.00 0.00 55 1010.4
20260505123012 2 352 6.4 16.1 0.00 0.00 0.00 55 1010.4
20260505122511 2 34 8.0 16.1 0.00 0.00 0.00 56 1010.3
20260505122013 2 8 4.8 11.3 0.00 0.00 0.00 56 1010.3
20260505121510 2 13 3.2 12.9 0.00 0.00 0.00 57 1010.1
20260505121010 2 60 1.6 14.5 0.00 0.00 0.00 58 1010.1
20260505120507 2 9 4.8 16.1 0.00 0.00 0.00 58 1010.0
20260505120007 2 349 4.8 12.9 0.00 0.00 0.00 60 1010.0
20260505115505 2 360 3.2 12.9 0.00 0.00 0.00 61 1009.9
20260505115004 1 13 3.2 9.7 0.00 0.00 0.00 64 1009.8
20260505114504 1 33 0.0 4.8 0.00 0.00 0.00 66 1009.9
20260505114004 1 42 1.6 6.4 0.00 0.00 0.00 67 1009.8
20260505113503 1 6 1.6 9.7 0.00 0.00 0.00 68 1009.7
20260505113001 1 351 3.2 9.7 0.00 0.00 0.00 68 1009.6
20260505112502 1 44 3.2 9.7 0.00 0.00 0.00 70 1009.5
20260505112002 1 352 1.6 11.3 0.00 0.00 0.00 71 1009.5
20260505111600 1 309 4.8 11.3 0.00 0.00 0.00 71 1009.4
20260505111102 1 309 1.6 8.0 0.00 0.00 0.00 72 1009.4
20260505110558 1 353 1.6 6.4 0.00 0.00 0.00 72 1009.3
20260505110105 1 13 1.6 8.0 0.00 0.00 0.00 72 1009.3
20260505102007 2 359 4.8 11.3 0.00 0.00 0.00 71 1009.1
20260505101508 2 353 0.0 14.5 0.00 0.00 0.00 71 1009.1
20260505101005 2 357 4.8 14.5 0.00 0.00 0.00 71 1009.1
20260505100506 2 13 4.8 12.9 0.00 0.00 0.00 70 1009.0
20260505100008 2 9 6.4 12.9 0.00 0.00 0.00 70 1009.0
20260505095505 2 29 1.6 14.5 0.00 0.00 0.00 70 1009.1
20260505095002 2 5 6.4 14.5 0.00 0.00 0.00 70 1009.0
20260505094607 2 333 1.6 9.7 0.00 0.00 0.00 70 1009.0
20260505094059 2 33 4.8 11.3 0.00 0.00 0.00 70 1008.9
20260505093558 2 338 3.2 11.3 0.00 0.00 0.00 70 1008.9
20260505093057 2 27 1.6 12.9 0.00 0.00 0.00 69 1008.8
20260505092556 2 319 3.2 12.9 0.00 0.00 0.00 69 1008.7
20260505092050 3 358 3.2 12.9 0.00 0.00 0.00 69 1008.7
20260505091557 3 354 6.4 12.9 0.00 0.00 0.00 69 1008.7
20260505091049 3 349 3.2 11.3 0.00 0.00 0.00 68 1008.7
20260505090548 3 324 1.6 19.3 0.00 0.00 0.00 68 1008.6
20260505090056 3 12 3.2 19.3 0.00 0.00 0.00 67 1008.4
20260505085547 3 332 4.8 19.3 0.00 0.00 0.00 67 1008.4
20260505085047 3 336 4.8 19.3 0.00 0.00 0.00 67 1008.4
20260505084549 3 343 6.4 16.1 0.00 0.00 0.00 67 1008.3
20260505084044 3 343 3.2 11.3 0.00 0.00 0.00 67 1008.3
20260505083544 3 343 4.8 14.5 0.00 0.00 0.00 67 1008.2
20260505083048 3 345 3.2 12.9 0.00 0.00 0.00 67 1008.1
20260505082543 3 309 4.8 11.3 0.00 0.00 0.00 67 1008.0
20260505082044 3 345 4.8 11.3 0.00 0.00 0.00 67 1008.0
20260505081555 3 345 3.2 11.3 0.00 0.00 0.00 67 1008.0